Weather Roundup
Issued by NWS Chicago, IL

Home | Current Version | Previous Version | Graphics & Text | Print | Product List | Glossary On
Versions: 1 2 3 4 5 6 7 8 9 10 11 12 13 14 15 16 17 18 19 20 21 22 23 24 25 26 27 28 29 30 31 32 33 34 35 36 37 38 39 40 41 42 43 44 45 46 47 48 49 50
000
NZUS59 KLOT 282103
HRRLOT

CHICAGO AREA WEATHER ROUNDUP
NATIONAL WEATHER SERVICE CHICAGO/ROMEOVILLE IL
400 PM CDT SUN AUG 28 2016

NOTE: "FAIR" INDICATES FEW OR NO CLOUDS BELOW 12,000 FEET WITH NO
SIGNIFICANT WEATHER AND/OR OBSTRUCTIONS TO VISIBILITY.

* THESE STATIONS ARE NOT UNDER NWS QUALITY CONTROL. THEY ALSO MAY NOT
  REPORT WEATHER SUCH AS PRECIPITATION OR FOG.

ILZ005-006-012>014-019>023-282200-
NORTHEAST ILLINOIS

CITY           SKY/WX    TMP DP  RH WIND       PRES   REMARKS
OHARE          MOSUNNY   81  68  64 E10       30.17F HX  84
MIDWAY         PTSUNNY   79  67  66 E8        30.17F HX  81
AURORA         CLOUDY    78  70  76 SE8       30.18F HX  80
LANSING*       RAIN      71  70  96 CALM      30.17F
JOLIET*        LGT RAIN  74  72  93 CALM      30.18F
WAUKEGAN       MOSUNNY   76  70  82 E7        30.20F
DUPAGE AIRPORT PTSUNNY   82  69  64 E9        30.17F HX  85
WHEELING       MOSUNNY   77  69  76 NE10      30.19F
KANKAKEE*      CLOUDY    75  72  91 CALM      30.17F
MORRIS*        PTSUNNY   73  69  89 CALM      30.17R
LEWIS AIRPORT* CLOUDY    76  75  97 S5        30.17F
$$

WIZ051-052-058>065-066-070>072-282200-
SOUTHEAST WISCONSIN

CITY           SKY/WX    TMP DP  RH WIND       PRES   REMARKS
MILWAUKEE      MOSUNNY   76  66  71 E8        30.21R
KENOSHA*       SUNNY     77  68  73 E10       30.20F
RACINE*        SUNNY     75  67  76 E8        30.22S
BURLINGTON     MOSUNNY   79  68  68 SE9       30.19F HX  81
WAUKESHA       MOSUNNY   75  66  73 E13       30.21R
$$

INZ001>003-010>013-019-020-282200-
NORTHWEST INDIANA

CITY           SKY/WX    TMP DP  RH WIND       PRES   REMARKS
GARY*          LGT RAIN  77  73  88 CALM      30.18F
MICHIGAN CITY* NOT AVBL
RENSSELAER*    NOT AVBL
VALPARAISO     LGT RAIN  72  70  93 CALM      30.18F
$$

LMZ740>746-282200-
SOUTHERN LAKE MICHIGAN

STATION/POSITION TIME  SKY/WX   TEMP WIND        PRES    VSBY
                                AIR  DIR/SP/G
                 (UTC)          (F)  (DEG/KT/KT) (MB)    (MI)
HARRISON CRIB    2000            75   90/  8/  8   N/A
BURNHAM HARBOR   2100            75   50/  3/  5   N/A
CALUMET HARBOR   2000            74   40/  4/  5 1022.2F
BURNS HARBOR     2000            75   30/  4/ 14 1022.7F
MICHIGAN CITY    2000            75   10/  6/  7   N/A
$$

ABBREVIATIONS USED IN REMARKS
   TC - TEMPERATURE IN CELSIUS
  WCI - WIND CHILL INDEX
   HX - HEAT INDEX
  VSB - VISIBILITY
$$




USA.gov is the U.S. government's official web portal to all federal, state and local government web resources and services.